ATLAS 5 CENTAUR DEB, 44014

Orbit data source: Space-Track

ATLAS 5 CENTAUR DEB, 44014 is space debris in HEO originally from a launch on Wed, 17 Sep 2014 UTC launched from the Air Force Eastern Test Range (AFETR). Debris objects in space refer to the collection of defunct objects orbiting the Earth. Examples of debris include non-operational satellites, rocket bodies, and fragments generated from explosions, collisions, or faulty payload assembly.

Loading next visibility...
Identifier
44014, 2014-055BV
Orbit
HEO
Country
Flag of USUS
Related business
Flag of USUnited Launch Alliance/Lockheed Martin (US)
Manufacturer
Unknown
Mission
Spacecraft
Bus & Motor
Unknown
Mass
Unknown
Launch date (UTC)
2014-09-17 (12 years ago)
Launch vehicle
Unknown
Launch site
Air Force Eastern Test Range (AFETR)
Object type
Payload
Rocket body
Debris
Shape & HBR
Unknown shape, 1.1 m
Radar Cross Section
Medium (>0.1 m² and <1 m²)

Expand to show TLE details & history
Last TLE update: 11 months ago

TLE from 11 months ago
0 ATLAS 5 CENTAUR DEB
1 44014U 14055BV  25256.42988009 -.00000226  00000-0  00000-0 0  9999
2 44014  20.6772 127.9355 5045248 195.9849 139.1901  1.92310067 48717
Epoch: 2025-09-13T10:19Z
TLE epoch observation values (Epoch: 2025-09-13T10:19:01.639Z)
Latitude
0.00004°
Longitude
-19.43985°
Altitude
33,160.188 km
Speed
2.36 km/s
True Right ascension
08h 31m 55s
True Declination
0° 00' 00"
Sunlit
Object was in daylight at epoch
Visualization orbit readout
Latitude
Unknown
Longitude
Unknown
Altitude
Unknown
Speed
Unknown
Apparent Right ascension
Unknown
Apparent Declination
Unknown
Sunlit
N/A
Visualization observer readout
Local Sidereal Time
15:53:00
Azimuth
Unknown
Elevation
Unknown
Doppler factor
Unknown
Orbital elements
Apogee altitude
34,720.98 km
Perigee altitude
7,156.763 km
Semi-major axis
27,317.009 km
Eccentricity
0.50452
Inclination
20.6772°
RAAN
127.9355°
Arg. of periapsis
195.9849°
True anomaly
164.02872°
Mean anomaly
139.1901°
Eccentric anomaly
152.5262°
Mean motion
0.48072 °/min
Orbital period
748.87 mins
BSTAR
0
Loading maneuver chart data...
Computing Atmospheric mass density...

Documentation

Showing up to 5 results
|